Lapse_Rate
5.2 4.8 5.0 5.2 6.5 6.5 6.5 6.5 6.5 6.5 6.5 6.5 6.9 6.5 6.5 6.3 6.5 6.5 2.8 2.7 3.1 3.4 4.5 5.4 5.6 5.5 5.5 5.4 5.1 5.0 5.3 5.1 5.0 5.3 5.3 5.6 5.7 5.6 5.5 5.8 5.9 6.9 6.5 7.1 6.8 6.7 6.9 6.6 6.8
4.6 5.6 5.2 6.2 6.5 6.5 6.5 6.5 6.5 6.5 6.5 6.7 6.3 6.9 6.4 6.5 6.9 4.3 3.8 3.5 3.7 3.4 4.1 4.8 5.3 5.6 5.6 5.6 5.7 5.6 5.7 5.5 5.6 6.0 6.0 6.2 6.3 6.4 6.7 6.7 6.4 6.5 7.0 7.3 6.8 6.7 6.4 6.6 6.6
5.1 6.4 6.1 6.5 6.5 6.5 6.5 6.5 6.5 6.5 7.1 6.9 6.9 6.0 6.7 6.9 6.3 4.3 3.6 4.0 3.6 3.3 4.0 4.5 5.3 5.7 5.6 5.7 5.7 5.8 5.9 6.1 6.4 6.3 6.3 6.3 6.5 6.5 6.3 6.6 6.9 6.8 6.6 6.8 6.9 6.7 6.5 6.6 6.7
5.5 5.5 5.8 6.5 6.5 6.5 6.5 6.5 6.6 6.4 6.9 5.7 6.9 6.5 6.5 7.5 5.8 4.3 4.1 4.1 3.3 3.4 4.1 5.0 5.5 6.1 6.0 6.1 6.1 6.3 6.1 6.3 6.3 6.5 6.4 6.9 7.0 7.0 7.1 6.9 7.0 7.0 7.0 6.9 6.7 6.8 6.7 6.8 6.8
5.4 6.2 6.5 6.5 6.5 6.5 6.5 6.6 6.8 6.5 6.7 6.8 6.6 6.6 6.8 6.8 5.3 4.6 4.1 4.1 3.3 3.0 4.3 5.1 5.8 6.1 6.1 5.9 6.4 6.4 6.4 6.4 6.3 6.7 6.6 6.9 6.6 6.8 6.9 7.0 7.0 7.3 7.3 7.0 6.7 6.9 6.9 6.9 7.1
6.2 6.0 6.5 6.5 6.5 6.5 6.6 7.0 6.8 6.7 6.7 6.8 6.9 6.6 6.4 5.6 4.6 4.7 4.5 3.9 3.9 3.5 4.3 5.2 5.9 6.1 6.2 6.2 6.2 6.3 6.6 6.4 6.3 6.4 6.5 6.7 6.5 6.8 7.2 6.9 6.9 7.0 8.2 7.1 6.8 6.8 6.9 7.4 6.7
6.5 6.5 6.5 6.5 6.5 6.5 6.5 7.1 6.7 6.6 6.7 6.6 7.1 6.5 6.3 5.8 4.9 4.9 4.3 3.9 4.2 4.3 4.0 4.6 5.6 6.2 6.5 6.0 6.2 6.3 6.2 6.5 6.6 6.5 6.5 6.6 6.9 6.6 6.8 7.0 7.3 8.4 8.5 7.1 6.6 6.4 6.5 6.5 6.5
6.8 6.5 6.5 6.5 6.5 6.5 6.7 6.5 6.7 6.9 6.6 7.4 6.8 6.6 6.6 5.8 5.1 4.6 4.6 3.9 3.8 3.8 3.8 3.8 5.0 5.7 5.8 5.9 6.6 6.3 6.4 6.3 6.6 6.7 6.7 6.9 6.8 6.6 6.9 7.0 7.6 7.7 7.3 7.1 6.7 6.6 6.5 6.5 6.5
7.6 6.5 6.5 6.5 6.5 6.5 6.9 6.6 6.4 7.6 6.9 7.5 7.6 7.1 7.1 5.8 4.9 4.8 5.3 5.4 5.1 4.2 3.6 3.7 3.9 4.6 5.1 5.4 6.5 6.1 6.4 6.6 6.5 6.3 6.5 5.9 5.4 5.8 6.7 7.1 7.7 7.2 6.9 6.9 6.7 6.8 6.6 6.6 6.4
6.6 6.5 6.5 6.5 6.5 6.5 6.8 6.7 6.9 6.8 6.8 7.0 7.0 7.0 6.8 5.5 5.1 5.8 5.9 5.8 5.3 4.9 3.8 3.4 3.4 3.7 4.5 5.6 5.0 5.0 5.8 5.4 5.4 5.2 4.8 4.5 5.1 5.9 6.1 7.3 7.5 6.8 7.1 6.9 6.9 6.9 6.4 5.4 5.1
6.6 6.5 6.6 6.6 6.6 7.0 6.7 6.8 7.2 6.7 6.5 6.9 7.0 7.2 6.2 5.5 5.5 6.0 5.3 4.2 3.9 4.6 4.0 3.0 3.2 3.6 4.0 3.5 3.7 4.2 4.4 4.6 4.8 4.8 4.3 4.3 4.6 4.7 4.7 4.8 4.8 5.0 5.3 5.2 5.2 4.9 4.8 4.8 4.2
6.5 6.7 6.8 6.4 7.1 6.9 6.6 7.1 6.8 6.9 6.6 6.9 6.6 6.4 6.3 5.7 5.0 4.3 3.7 3.1 2.5 3.9 3.9 2.7 3.1 3.1 3.3 3.3 3.4 3.6 3.6 3.9 4.1 4.3 3.8 3.6 3.3 3.7 3.9 3.8 3.8 3.8 4.1 4.0 4.2 4.1 3.8 4.2 4.1
6.5 6.5 6.1 6.2 6.3 5.9 6.9 6.7 6.7 6.8 6.7 6.9 8.0 7.3 6.7 5.9 5.2 4.3 3.5 3.4 2.7 2.8 2.6 2.6 2.7 2.6 2.6 2.8 2.9 3.3 3.6 4.1 4.2 4.2 3.8 3.4 3.1 3.2 3.5 3.5 3.7 3.8 4.0 4.2 4.0 3.9 3.6 3.9 3.8
6.4 6.3 5.9 5.8 5.4 6.6 6.6 6.7 6.9 7.1 6.9 7.0 7.7 7.1 7.2 6.0 5.7 5.4 4.5 3.4 2.7 2.7 2.3 2.4 2.6 2.3 2.3 2.7 3.0 3.1 3.6 3.9 3.8 3.9 3.8 3.8 3.6 3.3 3.4 3.3 3.5 3.8 4.2 4.1 4.2 3.8 3.8 3.4 3.4
6.0 6.5 6.5 6.5 6.4 6.6 6.8 6.5 6.5 6.6 7.3 7.2 7.1 7.2 7.0 6.8 6.2 5.1 4.3 3.4 2.9 2.7 2.5 2.1 2.3 2.4 2.1 2.5 3.2 3.3 3.8 3.7 3.3 3.7 4.1 4.0 4.0 3.8 3.8 3.2 3.4 3.7 3.8 3.9 3.5 3.8 3.8 3.7 3.8
6.5 6.5 6.5 6.5 6.5 6.7 6.4 6.5 6.5 6.7 7.3 6.9 7.3 7.6 7.1 6.7 6.1 5.4 4.9 3.7 3.6 3.0 2.6 2.3 4.4 2.7 2.1 2.5 3.1 3.3 3.7 3.8 3.9 4.0 4.3 4.2 4.1 3.9 3.3 3.0 3.2 3.9 3.8 3.5 3.4 3.5 3.7 2.9 4.1
6.5 6.5 6.5 6.5 6.4 6.5 6.5 6.5 6.4 7.0 6.9 6.9 7.1 7.3 7.3 6.7 6.2 5.5 5.3 4.3 3.7 3.4 2.6 2.3 3.0 2.6 2.7 2.8 3.1 3.2 3.6 3.3 3.8 4.1 4.4 4.4 4.2 4.2 3.4 3.6 3.4 3.7 3.7 3.4 3.5 3.3 3.9 4.1 4.4
6.5 6.5 6.5 6.5 6.5 6.5 6.5 6.5 6.5 6.7 6.9 6.9 6.9 7.3 7.1 7.0 6.1 6.0 5.6 4.9 4.1 3.6 2.8 3.0 3.2 2.6 2.6 3.0 2.9 2.9 2.6 3.2 3.9 4.2 4.2 4.6 4.0 4.2 3.9 3.8 3.6 3.6 3.4 2.9 3.3 3.9 3.3 3.9 4.0
6.5 6.5 6.5 6.5 6.5 6.5 6.5 6.5 6.5 6.6 6.4 6.6 6.5 6.7 7.0 7.1 6.5 6.0 5.6 5.2 4.7 4.0 3.1 2.8 2.8 2.3 2.7 2.5 2.7 2.6 2.8 2.8 3.2 4.0 4.7 4.7 4.4 4.0 3.7 3.7 3.3 3.4 3.8 3.4 3.8 3.1 3.7 4.0 3.3
6.5 6.5 6.5 6.5 6.5 6.5 6.5 6.5 6.5 6.5 6.4 6.3 6.5 6.5 7.0 7.1 6.2 6.2 6.0 5.2 4.9 3.9 3.4 2.8 3.0 2.1 2.8 2.6 2.2 2.9 2.7 2.9 3.2 3.9 3.8 4.3 4.5 4.1 3.7 3.6 3.6 3.4 3.5 3.2 3.5 3.3 3.2 3.3 3.1
6.5 6.5 6.5 6.5 6.5 6.5 6.5 6.5 6.5 6.5 6.5 6.4 6.4 6.4 6.6 7.1 6.4 6.1 5.9 5.2 4.7 4.1 3.4 3.0 2.8 2.5 2.5 2.2 2.3 2.3 2.6 2.9 3.5 3.4 3.6 4.0 4.2 4.2 4.0 3.9 3.5 3.4 3.1 3.4 3.6 3.4 3.9 4.1 3.2
6.5 6.5 6.5 6.5 6.5 6.5 6.5 6.5 6.5 6.5 6.5 6.5 6.2 6.1 6.0 6.5 6.9 5.8 5.5 5.1 4.5 4.0 3.7 3.3 3.1 2.7 2.6 2.1 3.2 3.2 3.1 3.3 3.5 3.4 3.1 4.0 4.4 4.1 4.1 4.0 3.8 3.6 3.1 3.4 3.6 3.5 3.3 3.5 4.5
6.6 6.5 6.5 6.5 6.5 6.5 6.4 6.5 6.5 6.5 6.5 6.5 6.4 6.4 6.7 6.5 6.8 5.8 5.6 5.1 4.3 4.0 3.7 3.4 3.0 3.1 3.0 2.8 3.3 3.4 3.0 3.0 2.9 3.0 3.3 3.6 3.9 4.0 4.1 4.2 3.7 3.4 3.1 3.5 3.8 3.6 3.5 3.3 3.6
6.5 6.5 6.5 6.5 6.5 6.5 6.5 6.5 6.5 6.5 6.5 6.5 6.3 6.6 6.9 7.0 7.0 6.2 5.6 5.1 4.4 4.1 3.7 3.5 2.7 2.8 2.8 2.9 2.2 2.9 3.2 2.9 3.0 2.8 3.3 3.4 3.6 3.8 3.7 3.8 3.8 3.4 3.0 3.2 3.5 3.9 3.7 3.4 2.9
6.5 6.5 6.5 6.5 6.5 6.5 6.5 6.5 6.5 6.5 6.5 6.4 6.4 6.4 6.7 7.3 7.0 5.3 5.4 5.0 4.3 3.7 3.5 3.4 2.6 2.6 2.2 2.6 2.4 2.7 3.1 2.6 2.8 2.8 2.9 3.1 3.4 3.6 3.4 3.6 3.7 3.6 3.1 3.6 3.7 3.6 3.8 3.8 3.7
6.5 6.5 6.5 6.4 6.5 6.5 6.5 6.5 6.5 6.5 5.8 6.5 6.4 5.4 6.4 6.9 6.3 6.2 6.1 5.2 4.5 3.9 3.2 2.9 2.8 2.9 2.6 2.6 2.0 1.7 2.3 3.2 2.7 2.6 2.7 3.2 3.4 3.7 3.5 3.5 3.7 3.7 4.0 3.7 3.4 3.5 3.8 3.7 3.8
6.5 6.5 6.5 6.5 6.5 6.5 6.5 6.5 6.5 6.5 6.5 6.5 6.5 6.0 5.6 6.9 6.8 5.9 5.7 5.7 4.7 4.3 3.1 2.9 2.7 2.8 2.8 2.4 2.3 1.3 1.7 2.2 2.4 2.4 2.7 2.9 3.0 4.0 3.8 3.9 3.8 3.4 3.3 3.8 3.6 4.0 3.2 3.9 3.7
6.5 6.5 6.5 6.5 6.5 6.5 6.5 6.5 6.5 6.5 6.5 6.5 6.5 6.6 6.6 5.8 5.7 5.8 6.2 5.4 5.2 4.9 3.9 3.1 3.1 2.9 2.6 2.6 2.2 2.3 1.8 2.0 2.2 2.1 2.6 2.6 2.9 3.1 3.5 3.7 4.0 3.6 3.3 3.3 3.5 3.6 3.9 3.9 4.0
6.5 6.5 6.5 6.5 6.5 6.5 6.5 6.5 6.5 6.5 6.5 6.5 6.5 6.9 7.0 5.8 5.7 5.7 5.7 4.4 5.2 5.2 4.4 3.6 3.3 3.0 3.1 3.1 3.1 2.6 2.0 1.8 1.4 2.4 2.3 2.8 2.7 2.7 3.1 3.0 3.5 3.8 3.3 3.2 3.2 3.3 3.8 3.8 3.7
6.5 6.5 6.5 6.5 6.5 6.5 6.5 6.5 6.5 6.5 6.6 6.7 6.8 7.1 6.8 5.1 5.4 5.4 5.1 3.7 3.7 4.2 4.8 4.0 3.7 3.4 3.2 2.7 2.7 2.8 2.3 1.7 1.9 2.0 1.8 1.8 2.8 2.6 3.0 2.8 3.2 3.5 3.5 3.3 3.7 3.5 4.3 3.9 4.0
Wind_Speed
7 8 2 1 1 1 2 3 4 1 5 5 12 5 8 3 2 3 3 6 13 10 11 12 11 10 9 11 10 10 10 11 10 10 10 10 10 10 9 10 9 10 11 13 13 12 13 14 15
7 4 1 1 2 0 3 2 5 2 6 16 7 9 4 3 3 7 6 8 17 13 11 11 11 10 10 11 10 10 9 9 9 8 8 8 9 10 10 10 11 9 11 12 13 12 11 13 13
6 1 0 2 1 2 2 2 3 3 18 7 5 5 3 3 8 11 7 13 16 10 11 11 13 12 11 11 11 9 8 8 9 9 8 7 9 10 11 10 11 11 11 12 13 11 11 11 11
3 1 1 0 3 4 3 3 4 8 6 8 8 7 4 2 11 6 15 14 12 9 12 14 14 13 12 11 10 8 8 8 9 10 8 7 9 9 10 11 11 11 12 10 11 10 11 9 9
1 2 1 2 4 1 4 2 5 3 4 6 1 4 6 2 11 15 15 13 12 7 11 14 14 13 11 9 9 9 8 8 8 9 8 7 8 9 10 10 10 11 12 11 10 10 9 9 10
1 1 1 1 2 1 6 3 3 4 4 6 7 6 4 11 15 12 12 11 12 10 10 12 13 12 11 10 10 9 9 9 10 9 8 7 9 7 9 9 10 11 11 11 10 10 10 12 13
1 1 1 3 4 3 4 8 2 4 5 5 6 5 6 11 12 11 10 11 10 9 9 9 11 13 12 11 11 10 9 8 9 9 9 8 9 7 8 9 10 10 11 11 10 10 11 11 10
2 0 2 1 4 1 5 4 3 6 5 6 10 6 10 12 14 12 11 9 7 5 6 8 9 11 13 11 12 11 10 8 7 8 9 7 8 6 9 9 11 11 11 10 10 9 9 10 8
2 1 1 1 2 4 2 2 3 9 4 2 1 7 15 18 16 14 13 12 9 5 4 6 8 11 10 9 11 10 9 9 8 7 7 6 7 8 9 8 11 11 11 10 10 8 8 10 10
1 1 2 1 4 5 8 7 5 5 7 6 14 20 18 18 16 18 16 15 13 11 4 4 7 8 9 7 11 8 7 8 8 7 8 7 6 7 6 8 11 11 10 9 8 8 8 7 6
2 3 2 4 8 10 8 5 5 4 3 6 19 21 18 17 15 17 16 15 13 13 7 5 6 10 7 7 9 7 5 6 6 6 6 5 5 4 5 8 9 10 8 8 6 4 4 2 2
2 7 7 4 9 7 7 13 7 7 3 5 18 20 18 18 16 14 12 10 11 13 10 5 6 7 6 9 7 7 6 6 5 4 1 4 4 4 3 5 6 8 8 7 4 3 4 3 2
4 7 7 9 5 6 12 8 5 8 7 14 18 18 16 14 14 11 11 9 10 11 6 6 5 6 7 6 6 6 6 5 4 4 3 6 6 4 3 4 5 5 6 6 5 5 4 4 2
3 7 10 6 6 8 9 6 6 8 9 15 18 16 15 14 13 10 10 10 10 9 6 6 6 7 8 5 6 6 8 7 5 4 5 7 4 4 4 4 4 4 4 3 3 1 2 5 2
3 3 4 6 4 4 12 6 4 12 14 18 19 16 14 13 12 12 13 13 14 10 8 8 7 8 6 7 8 8 9 7 6 7 7 8 9 7 6 2 1 1 3 2 4 2 2 4 5
3 3 3 3 4 5 3 3 6 9 14 16 20 17 16 14 16 11 12 11 10 9 10 8 9 7 6 6 8 8 9 9 7 8 8 10 8 8 6 3 2 2 1 3 3 2 2 2 2
5 3 2 3 2 5 1 1 3 7 12 16 17 18 16 14 15 14 13 12 12 11 10 11 8 9 8 7 7 7 6 6 7 9 10 9 7 8 7 3 2 1 1 3 3 2 2 1 2
3 4 2 2 5 1 6 4 4 7 4 10 13 15 16 14 14 15 15 13 11 9 9 9 9 8 7 3 4 2 3 4 7 8 9 9 7 7 6 3 1 2 0 2 2 2 2 1 2
3 4 0 2 3 3 3 4 8 9 5 9 12 15 16 17 9 13 15 15 12 8 8 9 10 8 7 2 3 2 3 2 2 7 9 9 7 5 7 4 4 4 1 2 2 2 2 2 1
2 5 2 3 0 4 2 2 3 9 4 3 9 11 15 16 11 12 16 16 16 15 12 9 11 7 8 4 3 3 3 2 2 4 6 9 9 8 7 6 4 5 1 3 2 2 2 1 1
1 5 3 3 4 3 4 3 3 6 3 3 3 5 9 16 15 12 14 16 16 16 15 13 13 11 9 6 4 3 4 4 2 2 2 6 9 8 8 8 7 5 4 3 3 3 3 2 1
1 7 5 2 2 1 2 3 3 7 8 9 8 7 9 11 14 12 14 15 16 16 16 14 12 11 9 8 6 7 4 4 3 4 3 3 8 8 7 8 7 6 5 4 3 3 2 2 2
6 6 6 4 2 3 3 4 4 3 7 12 17 14 12 13 13 15 15 17 17 15 14 14 13 10 10 10 8 7 5 3 3 2 5 4 4 8 7 7 7 5 4 4 4 3 3 2 2
5 6 8 5 3 2 2 4 5 3 4 4 12 15 17 16 15 14 16 15 15 14 14 13 13 13 10 11 8 10 10 7 4 3 4 3 2 3 7 8 6 5 6 4 4 3 4 3 2
5 6 2 3 2 5 5 4 2 7 10 9 13 16 16 17 16 10 18 17 15 15 15 13 13 14 11 12 11 10 11 10 9 6 4 4 3 3 5 6 4 4 6 6 6 4 3 3 2
4 7 5 5 5 4 2 6 1 5 8 12 15 8 12 15 15 15 13 16 16 17 17 16 15 14 12 11 12 9 8 7 6 6 4 4 5 5 6 7 7 8 7 6 6 3 3 3 3
3 5 3 7 2 4 1 6 4 20 19 21 19 13 5 12 14 14 13 15 17 17 18 18 16 16 13 14 9 8 7 7 9 8 6 4 5 4 5 8 6 8 8 7 6 4 4 3 3
7 1 3 4 4 3 3 4 4 16 17 19 20 17 13 10 11 12 15 14 15 16 16 17 17 18 16 15 13 11 11 9 8 8 8 7 6 5 5 6 6 6 8 8 6 4 4 4 4
6 5 6 5 3 5 4 2 6 8 12 14 17 19 18 12 11 11 10 6 11 12 14 15 15 16 14 13 12 11 9 9 7 9 9 9 6 6 6 6 6 6 7 6 6 5 5 5 4
4 3 3 4 3 2 3 3 7 7 11 13 15 19 20 11 4 4 5 7 7 9 12 14 14 14 15 14 13 12 9 10 10 9 10 9 9 5 7 7 7 7 7 7 8 8 7 7 6
Wind_Direction
142 132 136 62 3 276 226 256 300 80 134 150 147 152 157 67 158 191 113 154 128 138 159 147 142 134 132 142 130 114 102 100 100 106 108 98 98 102 106 104 106 104 103 103 106 104 103 109 105
134 135 13 303 276 354 281 241 263 296 129 134 77 104 66 99 91 116 115 146 130 138 149 145 144 134 133 138 127 124 117 117 124 113 104 109 111 108 103 114 106 109 111 106 103 102 102 104 110
151 271 262 302 305 319 286 253 325 86 131 113 104 48 61 103 103 142 127 134 127 126 144 150 141 139 132 135 137 141 137 133 135 127 121 119 102 107 105 101 112 112 103 105 107 106 104 110 120
157 100 271 6 280 190 247 9 178 113 73 60 102 77 79 110 136 136 133 128 122 125 145 149 145 146 141 145 146 155 142 149 137 133 120 111 104 106 104 103 95 100 111 109 103 104 108 123 130
332 232 220 219 239 285 226 38 34 68 53 103 87 91 97 58 112 125 133 129 128 128 143 148 152 150 146 149 144 144 140 142 130 130 126 111 110 108 106 102 104 98 108 106 102 103 104 113 95
270 270 272 7 346 245 85 357 100 74 78 120 102 106 92 128 125 134 131 127 131 136 141 149 151 157 155 149 152 146 142 134 131 128 125 120 119 114 111 108 110 105 104 104 105 96 80 89 96
259 234 355 353 349 59 13 334 62 94 129 97 132 104 117 136 131 127 124 122 125 130 132 148 153 149 148 149 149 140 137 142 138 132 126 125 124 122 111 109 114 107 109 106 105 103 90 90 99
240 96 145 301 17 25 348 342 83 28 54 98 144 152 158 147 130 120 118 113 104 105 124 131 137 143 139 147 146 141 139 132 125 121 127 125 124 120 104 101 101 107 108 111 113 102 89 84 98
254 359 70 127 164 120 159 79 34 356 146 89 181 146 132 132 123 125 131 132 132 121 118 130 128 126 131 144 144 141 135 126 127 125 125 101 90 91 89 101 102 104 109 116 113 103 91 95 103
270 166 246 65 121 118 101 87 58 14 304 58 88 111 126 132 136 147 152 152 159 165 147 148 132 130 143 147 131 129 127 115 107 106 106 104 98 104 96 103 101 107 112 118 116 112 104 95 106
216 229 276 130 126 137 128 131 117 129 268 161 145 141 144 144 146 156 159 161 164 169 170 163 142 142 151 127 141 132 127 124 112 109 110 100 108 96 82 79 84 99 100 93 92 73 77 99 94
249 242 252 200 162 145 164 132 147 158 211 155 157 144 150 155 156 161 158 158 157 172 174 166 153 144 158 147 155 144 140 132 121 134 134 144 134 127 111 104 100 99 93 91 74 74 35 22 311
224 266 256 242 209 106 135 140 142 177 120 143 150 148 156 160 163 169 159 156 157 171 171 174 152 156 164 147 155 151 152 156 154 175 216 198 164 146 135 131 113 106 99 103 95 56 10 1 316
220 237 268 287 146 148 134 146 142 163 145 154 156 154 165 168 168 154 162 160 166 170 174 162 159 170 166 155 173 178 177 177 174 216 206 191 172 154 170 157 143 131 123 124 134 182 355 3 38
261 300 19 56 106 128 124 132 207 149 162 167 163 158 170 171 168 173 176 172 170 178 164 170 156 174 178 176 187 190 200 193 190 193 194 198 190 205 210 201 198 207 152 138 169 162 18 32 82
17 49 45 197 135 164 39 151 171 161 167 168 168 168 167 184 177 178 182 173 165 163 178 166 178 175 195 184 190 193 204 198 202 193 187 217 231 218 188 182 179 227 279 113 122 96 65 48 104
5 138 58 121 176 148 182 195 265 160 169 167 173 175 174 175 178 181 181 175 174 172 173 173 168 172 195 190 190 202 218 200 209 184 192 218 232 206 167 186 168 219 241 70 49 76 68 82 90
173 95 18 67 184 129 177 245 123 172 200 173 176 174 183 186 185 184 177 180 175 179 169 182 171 171 185 176 130 133 173 177 195 198 206 201 200 189 169 165 139 185 91 89 77 102 57 58 70
131 102 51 246 256 229 255 200 187 182 192 181 187 185 185 194 177 187 178 177 177 166 165 176 175 177 166 149 147 148 192 160 166 194 201 205 196 175 174 167 163 188 199 103 99 109 117 78 93
166 113 260 294 82 133 39 21 187 164 195 144 187 195 190 185 186 192 187 180 181 180 183 176 190 176 189 171 164 149 157 144 138 168 209 213 196 175 174 185 186 171 154 144 133 143 123 82 85
147 138 197 228 17 49 107 33 159 168 146 284 249 207 201 193 188 189 189 187 188 186 183 189 187 183 185 158 125 93 88 71 84 137 210 201 201 188 183 186 187 181 161 164 173 142 103 128 105
210 195 175 238 72 281 115 292 270 194 200 222 249 215 203 198 189 187 188 188 190 196 194 186 182 184 179 165 164 157 156 151 200 175 170 189 205 197 194 188 190 176 169 161 163 132 143 135 146
211 163 168 186 150 70 330 67 251 156 221 216 224 225 208 209 198 181 189 188 193 190 194 187 179 183 186 182 173 161 157 156 147 143 161 181 209 210 198 202 191 184 184 169 160 161 164 152 134
115 84 41 48 83 51 221 125 314 313 300 312 224 220 217 204 203 185 183 187 194 189 190 189 176 189 189 187 178 172 171 166 150 161 175 185 200 223 208 200 211 198 188 184 185 174 160 177 138
92 83 31 45 61 198 305 74 216 308 349 307 266 221 210 210 202 179 184 187 189 184 185 188 188 188 186 191 190 190 183 170 180 179 181 168 182 204 216 193 185 208 209 193 189 180 183 188 169
155 156 150 158 171 190 344 158 89 355 325 351 10 234 210 209 200 200 193 187 189 188 186 187 193 199 190 189 199 192 191 185 175 175 173 190 198 211 180 192 194 210 208 199 196 195 184 186 202
170 73 184 108 19 88 256 339 308 350 359 2 4 11 280 217 211 204 198 193 189 190 191 189 195 200 196 193 194 194 184 192 192 178 174 182 196 206 196 198 194 194 208 193 184 200 203 192 202
94 92 74 14 129 146 30 73 327 343 341 339 347 349 332 293 216 200 201 189 192 195 192 191 196 199 196 197 191 198 193 201 202 177 182 188 195 194 181 195 200 191 197 190 189 195 211 206 213
8 20 39 108 94 150 127 263 19 332 337 338 341 340 335 314 216 203 200 185 188 191 189 192 198 199 201 201 206 194 192 192 194 199 189 192 184 184 191 196 201 206 196 196 187 207 201 220 227
53 60 102 121 204 62 120 215 44 1 347 354 352 357 360 8 70 119 168 154 168 186 192 194 195 200 204 201 196 202 198 185 194 212 201 184 197 186 194 197 200 215 207 192 198 203 201 209 221